TAM3923 SBRJ-SBSP

Flight info

Callsign TAM3923
Flight time 0h 47m
Altitude 30000
Route NAXOP UZ45 IBDAL
Aircraft A319/M-SDE2FGHIM1RWXYZ/S

Departure

Time 2026-04-30 14:20
Airport Santos Dumont Airport (SBRJ)

Arrival

Time 2026-04-30 15:08
Airport Congonhas–Deputado Freitas Nobre Airport (SBSP)
Time Latitude Longitude Altitude Speed Heading
2026-04-30 13:23 -22.91245 -43.16582 22 ft 0 kts 267°
2026-04-30 13:30 -22.91245 -43.16583 22 ft 0 kts 267°
2026-04-30 13:32 -22.91245 -43.16582 22 ft 0 kts 267°
2026-04-30 14:12 -22.91245 -43.16568 22 ft 4 kts 267°
2026-04-30 14:12 -22.91244 -43.16544 22 ft 3 kts 267°
2026-04-30 14:13 -22.91238 -43.16519 22 ft 4 kts 218°
2026-04-30 14:13 -22.91217 -43.16513 22 ft 4 kts 176°
2026-04-30 14:13 -22.91209 -43.16513 22 ft 0 kts 176°
2026-04-30 14:17 -22.91213 -43.16513 22 ft 2 kts 176°
2026-04-30 14:17 -22.91234 -43.16512 24 ft 5 kts 176°
2026-04-30 14:18 -22.91282 -43.16509 22 ft 9 kts 176°
2026-04-30 14:18 -22.91354 -43.16504 24 ft 11 kts 176°
2026-04-30 14:18 -22.91477 -43.16426 22 ft 11 kts 136°
2026-04-30 14:19 -22.91602 -43.16295 20 ft 10 kts 133°
2026-04-30 14:19 -22.91631 -43.16250 20 ft 5 kts 65°
2026-04-30 14:19 -22.91609 -43.16247 20 ft 0 kts 358°
2026-04-30 14:20 -22.91607 -43.16247 20 ft 8 kts 358°
2026-04-30 14:20 -22.91189 -43.16273 21 ft 109 kts 356°
2026-04-30 14:20 -22.89201 -43.16254 1018 ft 154 kts 23°
2026-04-30 14:21 -22.88359 -43.15505 1463 ft 169 kts 58°
2026-04-30 14:21 -22.88063 -43.14194 1753 ft 192 kts 91°
2026-04-30 14:21 -22.88229 -43.10947 2660 ft 239 kts 93°
2026-04-30 14:22 -22.88315 -43.09109 3532 ft 247 kts 92°
2026-04-30 14:22 -22.89146 -43.05449 5187 ft 272 kts 126°
2026-04-30 14:22 -22.90619 -43.04121 5920 ft 283 kts 155°
2026-04-30 14:23 -22.94429 -43.04336 7784 ft 287 kts 213°
2026-04-30 14:23 -22.96803 -43.07800 9658 ft 291 kts 242°
2026-04-30 14:24 -22.98830 -43.11810 10704 ft 324 kts 242°
2026-04-30 14:24 -22.99951 -43.14022 10974 ft 342 kts 242°
2026-04-30 14:25 -23.02281 -43.18590 12303 ft 352 kts 242°
2026-04-30 14:25 -23.04693 -43.23293 13727 ft 359 kts 243°
2026-04-30 14:26 -23.07145 -43.28075 14956 ft 363 kts 243°
2026-04-30 14:26 -23.08362 -43.30458 15582 ft 365 kts 243°
2026-04-30 14:26 -23.10827 -43.35300 16857 ft 367 kts 243°
2026-04-30 14:27 -23.12065 -43.37729 17497 ft 368 kts 243°
2026-04-30 14:27 -23.13311 -43.40172 18127 ft 369 kts 243°
2026-04-30 14:27 -23.14558 -43.42615 18692 ft 371 kts 243°
2026-04-30 14:28 -23.17057 -43.47510 19731 ft 375 kts 244°
2026-04-30 14:28 -23.18325 -43.50003 20254 ft 378 kts 244°
2026-04-30 14:28 -23.19599 -43.52513 20779 ft 380 kts 244°
2026-04-30 14:28 -23.20881 -43.55039 21301 ft 383 kts 244°
2026-04-30 14:29 -23.23474 -43.60151 22279 ft 387 kts 244°
2026-04-30 14:29 -23.25657 -43.64442 23070 ft 391 kts 244°
2026-04-30 14:30 -23.30074 -43.73139 24402 ft 398 kts 244°
2026-04-30 14:31 -23.32767 -43.78455 25154 ft 402 kts 244°
2026-04-30 14:31 -23.35479 -43.83820 25877 ft 407 kts 244°
2026-04-30 14:31 -23.36850 -43.86532 26241 ft 409 kts 244°
2026-04-30 14:32 -23.39601 -43.91976 26963 ft 412 kts 244°
2026-04-30 14:32 -23.40984 -43.94721 27326 ft 414 kts 244°
2026-04-30 14:32 -23.42351 -43.97442 27681 ft 416 kts 244°
2026-04-30 14:33 -23.43743 -44.00214 28027 ft 418 kts 244°
2026-04-30 14:33 -23.46558 -44.05812 28701 ft 422 kts 244°
2026-04-30 14:33 -23.47972 -44.08626 29027 ft 424 kts 244°
2026-04-30 14:34 -23.49379 -44.11423 29348 ft 426 kts 244°
2026-04-30 14:34 -23.50791 -44.14278 29665 ft 427 kts 247°
2026-04-30 14:34 -23.51880 -44.17292 29974 ft 426 kts 255°
2026-04-30 14:34 -23.52619 -44.20405 30078 ft 420 kts 258°
2026-04-30 14:35 -23.54695 -44.29491 30093 ft 408 kts 258°
2026-04-30 14:36 -23.56057 -44.35451 30092 ft 407 kts 258°
2026-04-30 14:36 -23.57427 -44.41452 30094 ft 407 kts 258°
2026-04-30 14:37 -23.58789 -44.47421 30094 ft 407 kts 258°
2026-04-30 14:37 -23.60162 -44.53428 30090 ft 407 kts 258°
2026-04-30 14:38 -23.61521 -44.59426 30104 ft 407 kts 258°
2026-04-30 14:38 -23.62872 -44.65411 30104 ft 406 kts 258°
2026-04-30 14:39 -23.64217 -44.71360 30103 ft 406 kts 258°
2026-04-30 14:39 -23.65566 -44.77346 30100 ft 405 kts 258°
2026-04-30 14:40 -23.67586 -44.86316 30096 ft 405 kts 258°
2026-04-30 14:40 -23.68928 -44.92283 30089 ft 405 kts 258°
2026-04-30 14:41 -23.70267 -44.98228 30107 ft 404 kts 258°
2026-04-30 14:41 -23.71601 -45.04183 30105 ft 403 kts 258°
2026-04-30 14:42 -23.72918 -45.10082 30092 ft 401 kts 258°
2026-04-30 14:42 -23.73569 -45.12995 30026 ft 388 kts 258°
2026-04-30 14:42 -23.74200 -45.15833 29647 ft 381 kts 258°
2026-04-30 14:43 -23.74820 -45.18619 29278 ft 374 kts 258°
2026-04-30 14:43 -23.75428 -45.21348 28918 ft 368 kts 259°
2026-04-30 14:43 -23.76027 -45.24041 28584 ft 361 kts 259°
2026-04-30 14:43 -23.76606 -45.26660 28234 ft 357 kts 258°
2026-04-30 14:44 -23.77184 -45.29284 27853 ft 354 kts 259°
2026-04-30 14:44 -23.77754 -45.31882 27468 ft 351 kts 259°
2026-04-30 14:44 -23.78322 -45.34470 27084 ft 349 kts 258°
2026-04-30 14:44 -23.78887 -45.37041 26686 ft 347 kts 258°
2026-04-30 14:45 -23.79448 -45.39594 26292 ft 344 kts 259°
2026-04-30 14:45 -23.79798 -45.42169 25922 ft 340 kts 268°
2026-04-30 14:45 -23.79882 -45.43871 25714 ft 339 kts 268°
2026-04-30 14:45 -23.80013 -45.46436 25388 ft 338 kts 268°
2026-04-30 14:46 -23.80189 -45.49828 24959 ft 336 kts 268°
2026-04-30 14:46 -23.80322 -45.52376 24632 ft 335 kts 268°
2026-04-30 14:46 -23.80412 -45.54092 24413 ft 335 kts 268°
2026-04-30 14:46 -23.80541 -45.56594 24093 ft 334 kts 268°
2026-04-30 14:47 -23.80670 -45.59122 23767 ft 333 kts 268°
2026-04-30 14:47 -23.80796 -45.61644 23410 ft 332 kts 268°
2026-04-30 14:47 -23.80924 -45.64159 23083 ft 331 kts 268°
2026-04-30 14:47 -23.81054 -45.66668 22761 ft 330 kts 268°
2026-04-30 14:48 -23.81183 -45.69173 22443 ft 330 kts 268°
2026-04-30 14:48 -23.81310 -45.71675 22122 ft 329 kts 268°
2026-04-30 14:48 -23.81435 -45.74167 21804 ft 328 kts 268°
2026-04-30 14:48 -23.81559 -45.76619 21489 ft 327 kts 268°
2026-04-30 14:49 -23.81686 -45.79101 21176 ft 327 kts 268°
2026-04-30 14:49 -23.81812 -45.81579 20855 ft 326 kts 268°
2026-04-30 14:49 -23.81936 -45.84058 20543 ft 326 kts 268°
2026-04-30 14:49 -23.82057 -45.86533 20231 ft 325 kts 268°
2026-04-30 14:50 -23.82294 -45.91457 19598 ft 324 kts 267°
2026-04-30 14:50 -23.82412 -45.93881 19286 ft 323 kts 267°
2026-04-30 14:51 -23.82650 -45.98773 18663 ft 323 kts 267°
2026-04-30 14:51 -23.82770 -46.01222 18341 ft 323 kts 267°
2026-04-30 14:51 -23.83008 -46.06103 17682 ft 321 kts 267°
2026-04-30 14:52 -23.83126 -46.08537 17381 ft 319 kts 267°
2026-04-30 14:52 -23.83354 -46.13353 16768 ft 316 kts 267°
2026-04-30 14:52 -23.83468 -46.15754 16461 ft 314 kts 267°
2026-04-30 14:53 -23.83689 -46.20485 15855 ft 313 kts 267°
2026-04-30 14:53 -23.83798 -46.22857 15556 ft 312 kts 267°
2026-04-30 14:54 -23.84025 -46.27576 14947 ft 309 kts 267°
2026-04-30 14:54 -23.84247 -46.32259 14343 ft 307 kts 267°
2026-04-30 14:55 -23.84464 -46.36899 13739 ft 305 kts 266°
2026-04-30 14:55 -23.84573 -46.39178 13434 ft 303 kts 266°
2026-04-30 14:55 -23.84788 -46.43759 12851 ft 300 kts 266°
2026-04-30 14:56 -23.84998 -46.48291 12274 ft 296 kts 266°
2026-04-30 14:56 -23.85205 -46.52762 11704 ft 293 kts 267°
2026-04-30 14:57 -23.85308 -46.54953 11423 ft 291 kts 267°
2026-04-30 14:57 -23.85473 -46.59346 10863 ft 288 kts 273°
2026-04-30 14:58 -23.84033 -46.63338 10303 ft 287 kts 309°
2026-04-30 14:58 -23.82541 -46.64758 10016 ft 288 kts 325°
2026-04-30 14:58 -23.79163 -46.67086 9413 ft 285 kts 326°
2026-04-30 14:59 -23.75826 -46.69412 9175 ft 283 kts 326°
2026-04-30 15:00 -23.71037 -46.72735 9045 ft 265 kts 326°
2026-04-30 15:00 -23.67948 -46.74880 8479 ft 260 kts 326°
2026-04-30 15:01 -23.64968 -46.76944 8127 ft 248 kts 326°
2026-04-30 15:01 -23.63520 -46.77948 7865 ft 245 kts 326°
2026-04-30 15:01 -23.60751 -46.79862 7387 ft 223 kts 326°
2026-04-30 15:02 -23.59471 -46.80748 7148 ft 212 kts 326°
2026-04-30 15:02 -23.58200 -46.81465 6875 ft 205 kts 344°
2026-04-30 15:03 -23.54710 -46.79714 6112 ft 193 kts 57°
2026-04-30 15:03 -23.53303 -46.77304 5620 ft 186 kts 56°
2026-04-30 15:04 -23.51985 -46.74940 5060 ft 178 kts 71°
2026-04-30 15:04 -23.53529 -46.71973 4521 ft 159 kts 148°
2026-04-30 15:05 -23.56220 -46.70106 3945 ft 141 kts 148°
2026-04-30 15:06 -23.57824 -46.68997 3572 ft 135 kts 148°
2026-04-30 15:06 -23.59401 -46.67907 3245 ft 132 kts 149°
2026-04-30 15:07 -23.60955 -46.66832 2906 ft 131 kts 149°
2026-04-30 15:07 -23.62483 -46.65773 2607 ft 119 kts 148°
2026-04-30 15:08 -23.63119 -46.65370 2610 ft 18 kts 182°
2026-04-30 15:08 -23.62931 -46.65571 2603 ft 18 kts 328°
2026-04-30 15:09 -23.62777 -46.65693 2602 ft 8 kts 267°
2026-04-30 15:09 -23.62808 -46.65748 2601 ft 1 kts 236°
2026-04-30 15:10 -23.62813 -46.65756 2601 ft 0 kts 237°